Weather observations for the past three days for
University Airport
Imperial (Metric)
Date Time (pdt) Wind (mph) Vis. (mi.) Weather Sky Cond. Temperature (ºF) Relative Humidity Wind Chill (°F) Heat Index (°F) Pressure Precipitation (in)
Air Dwpt 6 hour altimeter (in) sea level (mb) 1 hr 3 hr 6 hr
Max. Min.
25 09:35 Calm 10.00 Fair CLR 80.6 51.8 37% 80 30.01 0.0
25 09:15 Calm 10.00 Mostly Cloudy FEW018 BKN023 BKN030 77 50 39% 78 30.01 0.0
25 08:55 Calm 10.00 Overcast BKN023 OVC030 77 53.6 44% 78 30.01 0.0
25 08:35 Calm 10.00 Overcast BKN023 OVC030 73.4 53.6 50% 30 0.0
25 08:15 Calm 10.00 Overcast SCT023 OVC030 71.6 53.6 53% 30 0.0
25 07:55 Calm 10.00 Overcast SCT023 OVC030 69.8 53.6 57% 30 0.0
25 07:35 Calm 10.00 Overcast FEW023 OVC030 68 55.4 64% 30 0.0
25 07:15 Calm 10.00 Mostly Cloudy BKN030 66.2 55.4 68% 29.99 0.0
25 06:55 Calm 10.00 Mostly Cloudy BKN030 66.2 55.4 68% 29.99 0.0
25 06:35 Calm 10.00 Mostly Cloudy BKN030 64.4 55.4 73% 29.99 0.0
25 06:15 Calm 10.00 Overcast OVC030 64.4 53.6 68% 29.98 0.0
25 05:55 Calm 10.00 Mostly Cloudy BKN030 66.2 53.6 64% 29.98 0.0
25 05:35 Calm 10.00 Mostly Cloudy BKN030 66.2 53.6 64% 29.97 0.0
25 05:15 Calm 10.00 Partly Cloudy SCT030 66.2 53.6 64% 29.97 0.0
25 04:55 Calm 10.00 Partly Cloudy SCT030 66.2 53.6 64% 29.97 0.0
25 04:35 Calm 10.00 Partly Cloudy SCT030 68 53.6 60% 29.96 0.0
25 04:15 Calm 10.00 Partly Cloudy SCT030 68 53.6 60% 29.96 0.0
25 03:55 Calm 10.00 Mostly Cloudy BKN030 68 51.8 56% 29.96 0.0
25 03:35 Calm 10.00 Mostly Cloudy BKN030 68 53.6 60% 29.96 0.0
25 03:15 Calm 10.00 Mostly Cloudy BKN030 68 53.6 60% 29.96 0.0
25 02:55 Calm 10.00 Partly Cloudy SCT030 69.8 53.6 57% 29.96 0.0
25 02:35 Calm 10.00 Partly Cloudy SCT030 69.8 53.6 57% 29.96 0.0
25 02:15 Calm 10.00 Partly Cloudy SCT030 69.8 53.6 57% 29.96 0.0
25 01:55 Calm 10.00 Mostly Cloudy BKN030 69.8 51.8 53% 29.96 0.0
25 01:35 Calm 10.00 Mostly Cloudy BKN030 69.8 51.8 53% 29.96 0.0
25 01:15 Calm 10.00 Mostly Cloudy BKN030 71.6 50 47% 29.96 0.0
25 00:55 Calm 10.00 Mostly Cloudy BKN030 71.6 50 47% 29.96 0.0
25 00:35 Calm 10.00 Mostly Cloudy BKN030 73.4 50 44% 29.96 0.0
25 00:15 Calm 10.00 Mostly Cloudy BKN030 73.4 50 44% 29.96 0.0
24 23:55 Calm 10.00 A Few Clouds FEW030 73.4 50 44% 29.96 0.0
24 23:35 Calm 10.00 Fair CLR 73.4 48.2 41% 29.96 0.0
24 23:15 Calm 10.00 Fair CLR 75.2 48.2 39% 77 29.96 0.0
24 22:55 Calm 10.00 Fair CLR 75.2 46.4 36% 77 29.96 0.0
24 22:35 Calm 10.00 Fair CLR 77 46.4 34% 78 29.96 0.0
24 22:15 Calm 10.00 Fair CLR 77 46.4 34% 78 29.96 0.0
24 21:55 Calm 10.00 Fair CLR 78.8 46.4 32% 79 29.95 0.0
24 21:35 Calm 10.00 Fair CLR 80.6 44.6 28% 79 29.95 0.0
24 21:15 Calm 10.00 Fair CLR 82.4 44.6 26% 81 29.95 0.0
24 20:55 Calm 10.00 Fair CLR 84.2 44.6 25% 82 29.94 0.0
24 20:35 Calm 10.00 Fair CLR 86 44.6 24% 83 29.94 0.0
24 20:15 Calm 10.00 Fair CLR 86 46.4 25% 83 29.93 0.0
24 19:55 Calm 10.00 Fair CLR 89.6 48.2 24% 86 29.93 0.0
24 19:35 Calm 10.00 Fair CLR 91.4 48.2 23% 88 29.93 0.0
24 19:15 Calm 10.00 Fair CLR 93.2 46.4 20% 90 29.92 0.0
24 18:55 Calm 10.00 Fair CLR 95 53.6 25% 93 29.92 0.0
24 18:35 Calm 10.00 Fair CLR 96.8 53.6 23% 95 29.91 0.0
24 18:15 Calm 10.00 Fair CLR 98.6 51.8 21% 96 29.91 0.0
24 17:55 Calm 10.00 Fair CLR 100.4 51.8 20% 98 29.91 0.0
24 17:35 Calm 10.00 Fair CLR 100.4 53.6 21% 98 29.91 0.0
24 17:15 Calm 10.00 Fair CLR 100.4 53.6 21% 98 29.92 0.0
24 16:55 Calm 10.00 Fair CLR 102.2 53.6 20% 100 29.92 0.0
24 16:35 Calm 10.00 Fair CLR 102.2 51.8 18% 100 29.92 0.0
24 16:15 Calm 10.00 Fair CLR 102.2 50 17% 99 29.93 0.0
24 15:55 Calm 10.00 Fair CLR 102.2 50 17% 99 29.93 0.0
24 15:35 Calm 10.00 Fair CLR 102.2 48.2 16% 99 29.94 0.0
24 15:15 Calm 10.00 Fair CLR 102.2 46.4 15% 98 29.95 0.0
24 14:55 Calm 10.00 Fair CLR 102.2 48.2 16% 99 29.95 0.0
24 14:35 Calm 10.00 Fair CLR 104 44.6 13% 100 29.95 0.0
24 14:15 Calm 10.00 Fair CLR 102.2 42.8 13% 98 29.96 0.0
24 13:55 Calm 10.00 A Few Clouds FEW032 102.2 44.6 14% 98 29.96 0.0
24 13:35 Calm 10.00 Partly Cloudy SCT030 100.4 42.8 14% 96 29.96 0.0
24 13:15 Calm 10.00 Partly Cloudy SCT030 102.2 39.2 11% 97 29.96 0.0
24 12:55 Calm 10.00 Partly Cloudy SCT030 100.4 37.4 11% 95 29.97 0.0
24 12:35 Calm 10.00 A Few Clouds FEW032 102.2 37.4 11% 97 29.97 0.0
24 12:15 Calm 10.00 Fair CLR 100.4 37.4 11% 95 29.97 0.0
24 11:55 Calm 10.00 Fair CLR 98.6 39.2 13% 94 29.97 0.0
24 11:35 Calm 10.00 Fair CLR 98.6 39.2 13% 94 29.97 0.0
24 11:15 Calm 10.00 Fair CLR 95 39.2 14% 91 29.97 0.0
24 10:55 Calm 10.00 Fair CLR 93.2 41 16% 89 29.97 0.0
24 10:35 Calm 10.00 Fair CLR 93.2 42.8 17% 89 29.97 0.0
24 10:15 Calm 10.00 Fair CLR 93.2 41 16% 89 29.97 0.0
24 09:55 Calm 10.00 Fair CLR 91.4 41 17% 87 29.96 0.0
24 09:35 Calm 10.00 Fair CLR 89.6 41 18% 86 29.96 0.0
24 09:15 Calm 10.00 Fair CLR 87.8 41 19% 84 29.96 0.0
24 08:55 Calm 10.00 Fair CLR 84.2 44.6 25% 82 29.96 0.0
24 08:35 Calm 10.00 Fair CLR 82.4 42.8 25% 80 29.96 0.0
24 08:15 Calm 10.00 Fair CLR 84.2 42.8 23% 82 29.95 0.0
24 07:55 Calm 10.00 Fair CLR 82.4 44.6 26% 81 29.95 0.0
24 07:35 Calm 10.00 Fair CLR 77 46.4 34% 78 29.94 0.0
24 07:15 Calm 10.00 A Few Clouds FEW030 75.2 48.2 39% 77 29.94 0.0
24 06:55 Calm 10.00 Mostly Cloudy BKN030 73.4 50 44% 29.93 0.0
24 06:35 Calm 10.00 Mostly Cloudy BKN030 73.4 48.2 41% 29.92 0.0
24 06:15 Calm 10.00 Mostly Cloudy BKN030 71.6 50 47% 29.92 0.0
24 05:55 Calm 10.00 Mostly Cloudy BKN030 71.6 50 47% 29.92 0.0
24 05:35 Calm 10.00 Mostly Cloudy BKN030 71.6 50 47% 29.91 0.0
24 05:15 Calm 10.00 Mostly Cloudy BKN030 71.6 50 47% 29.91 0.0
24 04:55 Calm 10.00 Overcast OVC030 71.6 50 47% 29.9 0.0
24 04:35 Calm 10.00 Overcast OVC030 71.6 51.8 50% 29.9 0.0
24 04:15 Calm 10.00 Overcast OVC030 71.6 51.8 50% 29.89 0.0
24 03:55 Calm 10.00 Overcast FEW023 OVC030 71.6 50 47% 29.89 0.0
24 03:35 Calm 10.00 Overcast FEW023 OVC030 73.4 50 44% 29.89 0.0
24 03:15 Calm 10.00 Overcast FEW023 OVC030 73.4 50 44% 29.88 0.0
24 02:55 Calm 10.00 Overcast FEW023 OVC030 73.4 50 44% 29.88 0.0
24 02:35 Calm 10.00 Overcast FEW023 OVC030 73.4 50 44% 29.88 0.0
24 02:15 Calm 10.00 Mostly Cloudy SCT023 BKN030 73.4 50 44% 29.88 0.0
24 01:55 Calm 10.00 Mostly Cloudy FEW023 BKN030 73.4 51.8 47% 29.88 0.0
24 01:35 Calm 10.00 A Few Clouds FEW030 75.2 51.8 44% 78 29.88 0.0
24 01:15 Calm 10.00 Fair CLR 75.2 51.8 44% 78 29.88 0.0
24 00:55 Calm 10.00 Fair CLR 75.2 51.8 44% 78 29.88 0.0
24 00:35 Calm 10.00 Fair CLR 77 50 39% 78 29.88 0.0
24 00:15 Calm 10.00 Fair CLR 77 50 39% 78 29.88 0.0
23 23:55 Calm 10.00 Fair CLR 78.8 50 37% 79 29.89 0.0
23 23:35 Calm 10.00 Fair CLR 80.6 53.6 39% 80 29.89 0.0
23 23:15 Calm 10.00 Fair CLR 80.6 53.6 39% 80 29.88 0.0
23 22:55 Calm 10.00 Fair CLR 82.4 53.6 37% 81 29.88 0.0
23 22:35 Calm 10.00 Fair CLR 84.2 51.8 33% 82 29.87 0.0
23 22:15 Calm 10.00 Fair CLR 86 50 29% 84 29.87 0.0
23 21:55 Calm 10.00 Fair CLR 86 51.8 31% 84 29.86 0.0
23 21:35 Calm 10.00 Fair CLR 86 55.4 35% 85 29.86 0.0
23 21:15 Calm 10.00 Fair CLR 87.8 55.4 33% 86 29.85 0.0
23 20:55 Calm 10.00 Fair CLR 89.6 55.4 31% 88 29.84 0.0
23 20:35 Calm 10.00 Fair CLR 91.4 55.4 30% 90 29.83 0.0
23 20:15 Calm 10.00 Fair CLR 91.4 55.4 30% 90 29.83 0.0
23 19:55 Calm 10.00 Fair CLR 93.2 57.2 30% 92 29.82 0.0
23 19:35 Calm 10.00 Fair CLR 98.6 55.4 24% 97 29.82 0.0
23 13:20 Calm 10.00 Partly Cloudy SCT032 98.6 59 27% 98 29.85 0.0
23 13:15 Calm 10.00 Partly Cloudy SCT032 98.6 57.2 25% 98 29.85 0.0
23 12:20 Calm 10.00 Fair CLR 95 62.6 34% 96 29.86 0.0
23 12:15 Calm 10.00 Fair CLR 93.2 62.6 36% 94 29.86 0.0
23 11:20 Calm 10.00 Fair CLR 91.4 62.6 38% 92 29.86 0.0
23 11:15 Calm 10.00 Fair CLR 91.4 62.6 38% 92 29.86 0.0
23 10:20 Calm 10.00 Fair CLR 87.8 62.6 43% 88 29.87 0.0
23 10:15 Calm 10.00 Fair CLR 87.8 62.6 43% 88 29.87 0.0
23 09:20 Calm 10.00 Fair CLR 84.2 62.6 48% 85 29.86 0.0
23 09:15 Calm 10.00 Fair CLR 82.4 62.6 51% 83 29.86 0.0
23 08:25 Calm 10.00 Fair CLR 77 60.8 57% 79 29.86 0.0
23 08:15 Calm 10.00 Fair CLR 77 60.8 57% 79 29.85 0.0
23 07:15 Calm 10.00 Mostly Cloudy BKN030 71.6 59 65% 29.84 0.0
23 06:20 Calm 10.00 Partly Cloudy SCT030 68 57.2 69% 29.82 0.0
23 06:15 Calm 10.00 Mostly Cloudy BKN030 68 57.2 69% 29.82 0.0
23 05:20 Calm 10.00 Mostly Cloudy BKN030 68 57.2 69% 29.8 0.0
23 05:15 Calm 10.00 Mostly Cloudy BKN030 68 57.2 69% 29.79 0.0
23 04:25 Calm 10.00 Mostly Cloudy BKN030 71.6 57.2 61% 29.78 0.0
23 04:15 Calm 10.00 Mostly Cloudy BKN030 71.6 57.2 61% 29.78 0.0
23 03:20 Calm 10.00 Mostly Cloudy BKN030 71.6 57.2 61% 29.77 0.0
23 03:15 Calm 10.00 Partly Cloudy SCT030 71.6 57.2 61% 29.77 0.0
23 02:20 Calm 10.00 Partly Cloudy SCT030 71.6 57.2 61% 29.77 0.0
23 02:15 Calm 10.00 Partly Cloudy SCT030 71.6 57.2 61% 29.77 0.0
23 01:25 Calm 10.00 Mostly Cloudy BKN030 73.4 57.2 57% 29.76 0.0
23 01:15 Calm 10.00 Mostly Cloudy BKN030 73.4 57.2 57% 29.76 0.0
23 00:20 Calm 10.00 Partly Cloudy SCT030 73.4 57.2 57% 29.75 0.0
23 00:15 Calm 10.00 A Few Clouds FEW030 73.4 57.2 57% 29.75 0.0
22 23:20 Calm 10.00 Fair CLR 75.2 57.2 54% 78 29.75 0.0
22 23:15 Calm 10.00 Fair CLR 75.2 57.2 54% 78 29.75 0.0
22 22:40 Calm 10.00 Fair CLR 77 59 54% 79 29.75 0.0
22 22:35 Calm 10.00 Fair CLR 77 57.2 51% 79 29.75 0.0
22 22:15 Calm 10.00 Fair CLR 77 59 54% 79 29.75 0.0
22 21:55 Calm 10.00 Fair CLR 78.8 59 51% 80 29.74 0.0
22 21:35 Calm 10.00 Fair CLR 80.6 59 48% 81 29.74 0.0
22 21:15 Calm 10.00 Fair CLR 82.4 59 45% 82 29.73 0.0
22 20:55 Calm 10.00 Fair CLR 84.2 59 43% 84 29.73 0.0
22 20:35 Calm 10.00 Fair CLR 86 59 40% 85 29.73 0.0
22 20:15 Calm 10.00 Fair CLR 89.6 60.8 38% 90 29.72 0.0
22 19:55 Calm 10.00 Fair CLR 91.4 62.6 38% 92 29.72 0.0
22 19:35 Calm 10.00 Fair CLR 95 62.6 34% 96 29.72 0.0
22 19:15 Calm 10.00 Fair CLR 96.8 62.6 32% 98 29.72 0.0
22 18:55 Calm 10.00 Fair CLR 98.6 60.8 29% 99 29.72 0.0
22 18:35 Calm 10.00 Fair CLR 100.4 59 25% 100 29.72 0.0
22 18:15 Calm 10.00 Fair CLR 100.4 55.4 22% 99 29.72 0.0
22 17:55 Calm 10.00 Fair CLR 102.2 50 17% 99 29.72 0.0
22 17:35 Calm 10.00 Fair CLR 102.2 48.2 16% 99 29.72 0.0
22 17:15 Calm 10.00 Fair CLR 102.2 50 17% 99 29.73 0.0
22 16:55 Calm 10.00 Fair CLR 102.2 51.8 18% 100 29.73 0.0
22 16:35 Calm 10.00 Fair CLR 102.2 53.6 20% 100 29.74 0.0
22 16:15 Calm 10.00 Fair CLR 102.2 55.4 21% 101 29.75 0.0
22 15:55 Calm 10.00 Fair CLR 100.4 57.2 24% 100 29.75 0.0
22 15:35 Calm 10.00 Fair CLR 100.4 55.4 22% 99 29.76 0.0
22 15:15 Calm 10.00 Fair CLR 100.4 55.4 22% 99 29.77 0.0
22 14:55 Calm 10.00 Fair CLR 98.6 55.4 24% 97 29.78 0.0
22 14:35 Calm 10.00 Fair CLR 98.6 57.2 25% 98 29.78 0.0
22 14:15 Calm 10.00 A Few Clouds FEW032 98.6 55.4 24% 97 29.79 0.0
22 13:55 Calm 10.00 Partly Cloudy SCT032 95 59 30% 94 29.8 0.0
22 13:35 Calm 10.00 A Few Clouds FEW032 95 62.6 34% 96 29.81 0.0
22 13:15 Calm 10.00 A Few Clouds FEW032 93.2 59 32% 93 29.81 0.0
22 12:50 Calm 10.00 Fair CLR 93.2 59 32% 93 29.81 0.0
22 12:35 Calm 10.00 Fair CLR 91.4 59 34% 91 29.82 0.0
22 12:15 Calm 10.00 Fair CLR 91.4 59 34% 91 29.82 0.0
22 11:55 Calm 10.00 Fair CLR 89.6 60.8 38% 90 29.82 0.0
22 11:35 Calm 10.00 Fair CLR 87.8 60.8 40% 88 29.82 0.0
22 11:15 Calm 10.00 Fair CLR 86 62.6 46% 87 29.83 0.0
22 10:55 Calm 10.00 Fair CLR 84.2 60.8 45% 84 29.83 0.0
22 10:35 Calm 10.00 Fair CLR 82.4 60.8 48% 83 29.83 0.0
22 10:15 Calm 9.00 Fair CLR 82.4 60.8 48% 83 29.83 0.0
22 09:55 Calm 10.00 Fair CLR 80.6 59 48% 81 29.84 0.0
Date Time (pdt) Wind (mph) Vis. (mi.) Weather Sky Cond. Air Dwpt Max. Min. Relative Humidity Wind Chill (°F) Heat Index (°F) altimeter (in) sea level (mb) 1 hr 3 hr 6 hr
6 hour
Temperature (ºF) Pressure Precipitation (in)